TimeCDT,TemperatureF,Dew PointF,Humidity,Sea Level PressureIn,VisibilityMPH,Wind Direction,Wind SpeedMPH,Gust SpeedMPH,PrecipitationIn,Events,Conditions,WindDirDegrees,DateUTC
12:15 AM,34.0,31.1,89,29.95,10.0,WSW,3.5,-,N/A,,Overcast,250,2013-10-27 05:15:00
12:35 AM,33.8,30.9,89,29.94,10.0,Calm,Calm,-,N/A,,Overcast,0,2013-10-27 05:35:00
12:55 AM,33.8,30.7,89,29.94,10.0,Calm,Calm,-,N/A,,Overcast,0,2013-10-27 05:55:00
1:15 AM,33.4,30.9,90,29.94,10.0,Calm,Calm,-,N/A,,Overcast,0,2013-10-27 06:15:00
1:35 AM,33.1,30.7,91,29.93,10.0,Calm,Calm,-,N/A,,Overcast,0,2013-10-27 06:35:00
1:55 AM,32.9,31.1,93,29.93,10.0,Calm,Calm,-,N/A,,Overcast,0,2013-10-27 06:55:00
2:15 AM,33.1,31.1,92,29.92,10.0,Calm,Calm,-,N/A,,Overcast,0,2013-10-27 07:15:00
2:35 AM,33.3,31.1,92,29.91,10.0,Calm,Calm,-,N/A,,Overcast,0,2013-10-27 07:35:00
2:55 AM,33.3,31.1,92,29.91,10.0,Calm,Calm,-,N/A,,Overcast,0,2013-10-27 07:55:00
3:15 AM,33.3,31.1,92,29.90,10.0,Calm,Calm,-,N/A,,Overcast,0,2013-10-27 08:15:00
3:35 AM,32.9,31.5,94,29.90,10.0,Calm,Calm,-,N/A,,Overcast,0,2013-10-27 08:35:00
3:55 AM,33.1,31.1,92,29.89,10.0,SSW,3.5,-,N/A,,Overcast,200,2013-10-27 08:55:00
4:15 AM,33.3,31.1,92,29.89,10.0,Calm,Calm,-,N/A,,Overcast,0,2013-10-27 09:15:00
4:35 AM,32.9,30.9,92,29.89,10.0,Calm,Calm,-,N/A,,Overcast,0,2013-10-27 09:35:00
4:55 AM,32.5,31.1,94,29.89,10.0,Calm,Calm,-,N/A,,Overcast,0,2013-10-27 09:55:00
5:15 AM,32.4,30.6,93,29.88,10.0,Calm,Calm,-,N/A,,Mostly Cloudy,0,2013-10-27 10:15:00
5:35 AM,32.0,30.2,93,29.87,10.0,SSW,3.5,-,N/A,,Mostly Cloudy,200,2013-10-27 10:35:00
5:55 AM,32.0,30.6,94,29.86,10.0,SSW,3.5,-,N/A,,Mostly Cloudy,210,2013-10-27 10:55:00
6:15 AM,32.5,30.9,94,29.86,10.0,SSW,3.5,-,N/A,,Overcast,200,2013-10-27 11:15:00
6:35 AM,32.9,30.9,92,29.85,10.0,SW,4.6,-,N/A,,Overcast,230,2013-10-27 11:35:00
6:55 AM,33.1,30.6,90,29.85,10.0,Calm,Calm,-,N/A,,Overcast,0,2013-10-27 11:55:00
7:15 AM,33.1,30.2,89,29.85,10.0,WSW,4.6,-,N/A,,Overcast,240,2013-10-27 12:15:00
7:35 AM,33.1,30.2,89,29.85,10.0,SW,3.5,-,N/A,,Overcast,220,2013-10-27 12:35:00
7:55 AM,32.9,29.8,88,29.84,10.0,SSW,4.6,-,N/A,,Overcast,210,2013-10-27 12:55:00
8:15 AM,33.3,29.3,85,29.84,10.0,SW,4.6,-,N/A,,Overcast,220,2013-10-27 13:15:00
8:35 AM,33.8,29.3,84,29.84,10.0,SW,4.6,-,N/A,,Scattered Clouds,220,2013-10-27 13:35:00
8:55 AM,34.0,28.9,82,29.85,10.0,SW,5.8,-,N/A,,Mostly Cloudy,230,2013-10-27 13:55:00
9:15 AM,34.7,28.9,79,29.84,10.0,SW,5.8,-,N/A,,Mostly Cloudy,230,2013-10-27 14:15:00
9:35 AM,35.6,28.4,75,29.83,10.0,WSW,9.2,-,N/A,,Scattered Clouds,240,2013-10-27 14:35:00
9:55 AM,35.8,28.4,75,29.84,10.0,SW,6.9,18.4,N/A,,Scattered Clouds,230,2013-10-27 14:55:00
10:15 AM,37.4,28.8,71,29.83,10.0,SW,8.1,-,N/A,,Clear,220,2013-10-27 15:15:00
10:35 AM,38.5,28.2,67,29.83,10.0,WSW,6.9,-,N/A,,Clear,250,2013-10-27 15:35:00
10:55 AM,39.2,28.2,65,29.82,10.0,WSW,10.4,16.1,N/A,,Clear,240,2013-10-27 15:55:00
11:15 AM,41.5,28.4,60,29.82,10.0,SW,9.2,-,N/A,,Scattered Clouds,230,2013-10-27 16:15:00
11:35 AM,41.0,28.4,61,29.81,10.0,SW,4.6,9.2,N/A,,Mostly Cloudy,220,2013-10-27 16:35:00
11:55 AM,41.2,28.6,61,29.81,10.0,SSW,8.1,-,N/A,,Overcast,210,2013-10-27 16:55:00
12:15 PM,43.5,28.9,56,29.80,10.0,WSW,5.8,-,N/A,,Overcast,240,2013-10-27 17:15:00
12:35 PM,42.8,28.6,57,29.79,10.0,SW,6.9,-,N/A,,Overcast,230,2013-10-27 17:35:00
12:55 PM,43.7,27.9,54,29.77,10.0,SW,8.1,-,N/A,,Overcast,220,2013-10-27 17:55:00
1:15 PM,44.4,28.0,53,29.77,10.0,SW,9.2,19.6,N/A,,Overcast,230,2013-10-27 18:15:00
1:35 PM,44.8,27.7,51,29.77,10.0,SW,8.1,19.6,N/A,,Overcast,230,2013-10-27 18:35:00
1:55 PM,46.6,27.7,48,29.76,10.0,WSW,5.8,9.2,N/A,,Mostly Cloudy,240,2013-10-27 18:55:00
2:15 PM,47.3,27.7,47,29.76,10.0,SW,12.7,18.4,N/A,,Mostly Cloudy,230,2013-10-27 19:15:00
2:35 PM,48.2,27.9,45,29.76,10.0,WSW,6.9,19.6,N/A,,Scattered Clouds,250,2013-10-27 19:35:00
2:55 PM,48.9,27.9,44,29.77,10.0,West,12.7,20.7,N/A,,Scattered Clouds,260,2013-10-27 19:55:00
3:15 PM,46.8,28.8,50,29.77,10.0,West,10.4,-,N/A,,Mostly Cloudy,260,2013-10-27 20:15:00
3:35 PM,48.4,29.7,48,29.79,10.0,West,6.9,18.4,N/A,,Mostly Cloudy,280,2013-10-27 20:35:00
3:55 PM,48.0,30.0,50,29.81,10.0,WNW,5.8,17.3,N/A,,Mostly Cloudy,290,2013-10-27 20:55:00
4:15 PM,45.9,29.8,54,29.82,10.0,WNW,5.8,9.2,N/A,,Overcast,300,2013-10-27 21:15:00
4:35 PM,45.5,30.7,56,29.83,10.0,WNW,8.1,-,N/A,,Overcast,300,2013-10-27 21:35:00
4:55 PM,44.8,29.8,56,29.84,10.0,NW,6.9,17.3,N/A,,Mostly Cloudy,320,2013-10-27 21:55:00
5:15 PM,42.8,31.6,65,29.87,10.0,NNW,15.0,23.0,N/A,,Mostly Cloudy,340,2013-10-27 22:15:00
5:35 PM,40.8,31.1,68,29.89,10.0,NNW,10.4,21.9,N/A,,Overcast,330,2013-10-27 22:35:00
5:55 PM,40.1,30.2,68,29.91,10.0,NW,9.2,17.3,N/A,,Overcast,320,2013-10-27 22:55:00
6:15 PM,39.2,30.2,70,29.92,10.0,NNW,8.1,16.1,N/A,,Overcast,340,2013-10-27 23:15:00
6:35 PM,39.4,29.8,69,29.93,10.0,NNW,11.5,20.7,N/A,,Overcast,330,2013-10-27 23:35:00
6:55 PM,39.2,30.0,70,29.95,10.0,NNW,10.4,19.6,N/A,,Overcast,330,2013-10-27 23:55:00
7:15 PM,38.8,30.7,73,29.96,10.0,NNW,9.2,16.1,N/A,,Overcast,340,2013-10-28 00:15:00
7:35 PM,38.7,31.5,75,29.97,10.0,NNW,10.4,-,N/A,,Overcast,340,2013-10-28 00:35:00
7:55 PM,38.3,32.0,78,29.98,10.0,North,11.5,18.4,N/A,,Overcast,350,2013-10-28 00:55:00
8:15 PM,37.6,33.1,84,30.00,10.0,North,15.0,20.7,N/A,,Drizzle,10,2013-10-28 01:15:00
8:35 PM,36.7,32.9,86,30.02,10.0,North,11.5,17.3,N/A,,Overcast,350,2013-10-28 01:35:00
8:55 PM,36.7,32.2,84,30.02,10.0,North,9.2,-,N/A,,Overcast,360,2013-10-28 01:55:00
9:15 PM,36.7,32.0,83,30.03,10.0,North,6.9,-,N/A,,Overcast,360,2013-10-28 02:15:00
9:35 PM,35.8,32.2,87,30.05,5.0,North,12.7,16.1,N/A,Rain,Light Rain,350,2013-10-28 02:35:00
9:55 PM,34.2,32.0,92,30.08,7.0,NNE,11.5,23.0,N/A,Snow,Light Snow,20,2013-10-28 02:55:00
10:15 PM,33.8,30.9,89,30.10,10.0,NNE,12.7,18.4,N/A,,Overcast,30,2013-10-28 03:15:00
10:35 PM,33.8,30.4,87,30.10,10.0,NNE,11.5,-,N/A,,Overcast,20,2013-10-28 03:35:00
10:55 PM,33.3,31.1,92,30.12,5.0,North,6.9,-,N/A,Snow,Light Snow,10,2013-10-28 03:55:00
11:15 PM,32.9,31.6,95,30.13,5.0,NNE,8.1,-,N/A,Snow,Light Snow,30,2013-10-28 04:15:00
11:35 PM,32.5,30.2,91,30.14,10.0,NNE,11.5,18.4,N/A,,Overcast,30,2013-10-28 04:35:00
11:55 PM,32.2,30.0,92,30.15,4.0,NNE,10.4,21.9,N/A,Snow,Light Snow,20,2013-10-28 04:55:00